Regional Weather Roundup
Issued by NWS Sioux Falls, SD

Home | Current Version | Previous Version | Graphics & Text | Print | Product List | Glossary On
Versions: 1 2 3 4 5 6 7 8 9 10 11 12 13 14 15 16 17 18 19 20 21 22 23 24 25 26 27 28 29 30 31 32 33 34 35 36 37 38 39 40 41 42 43 44 45 46 47 48 49 50
000
ASUS43 KFSD 170610
RWRFSD

WEATHER ROUNDUP FOR SE SOUTH DAKOTA/SW MINNESOTA/NW IOWA
NATIONAL WEATHER SERVICE SIOUX FALLS SD
1200 AM CST TUE JAN 17 2017

NOTE: "FAIR" INDICATES FEW OR NO CLOUDS BELOW 12,000 FEET WITH NO
SIGNIFICANT WEATHER AND OR OBSTRUCTIONS TO VISIBILITY.


SDZ038>040-050-052>070-170700-
SOUTHEAST SOUTH DAKOTA

CITY           SKY/WX    TMP DP  RH WIND       PRES   REMARKS
BROOKINGS      MIX PCPN  18  17  96 NW7       29.98S VSB 1/2 WCI   9
CHAMBERLAIN    CLOUDY    14  11  90 W9        30.07S WCI   1
6HR MIN TEMP:  14; 6HR MAX TEMP:  20;

HURON          CLOUDY     4   3  96 NW6       30.06S WCI  -7
6HR MIN TEMP:   3; 6HR MAX TEMP:  14;

MADISON        MOCLDY    14  14 100 NW8         N/A  WCI   3
MITCHELL       CLOUDY    11   7  84 W7        30.07R WCI   0
6HR MIN TEMP:  11; 6HR MAX TEMP:  21;

SIOUX FALLS    CLOUDY    25  22  88 NW10      29.99R WCI  15
6HR MIN TEMP:  24; 6HR MAX TEMP:  31; 6HR PCP: TRACE;

WINNER         FAIR      17  13  84 W5        30.07S WCI  10
YANKTON        CLOUDY    18  10  73 CALM      30.03S
$$

MNZ071-072-080-081-089-090-097-098-170700-
SOUTHWEST MINNESOTA

CITY           SKY/WX    TMP DP  RH WIND       PRES   REMARKS
FAIRMONT       MIX PCPN  31  30  96 N14       29.94S FOG     WCI  21
JACKSON        DRIZZLE   30  30 100 NW9       29.94S WCI  22
LUVERNE        CLOUDY    28  27  93 N5        29.98S WCI  23
MARSHALL       CLOUDY    21  19  93 NW13      30.00S FOG     WCI   9
6HR MIN TEMP:  22; 6HR MAX TEMP:  28; 6HR PCP: TRACE;

MONTEVIDEO     CLOUDY    23  21  93 N10       30.02S FOG     WCI  12
PIPESTONE      CLOUDY    28  28 100 NE5       29.95F FOG     WCI  23
REDWOOD FALLS  CLOUDY    31  28  89 N7        29.98S FOG     WCI  24
TRACY          FOG       26  26  97 NW6       29.98S VSB 3/4 WCI  20
WINDOM         MIX PCPN  28  28 100 NW9       29.94F WCI  20
WORTHINGTON    FOG       27  26  96 N10       29.95F VSB 3/4 WCI  17
$$

IAZ001>003-012>014-020>022-031-032-NEZ013-014-SDZ071-170700-
NORTHWEST IOWA

CITY           SKY/WX    TMP DP  RH WIND       PRES   REMARKS
CHEROKEE       CLOUDY    32  32 100 NW5       29.96R FOG     WCI  27
DENISON        MIX PCPN  32  32 100 NW10      29.91S WCI  24
ESTHERVILLE    FRZ RAIN  31  31 100 N13       29.93S FOG     WCI  21
LE MARS        CLOUDY    30  30 100 NW12      29.99R FOG     WCI  21
ORANGE CITY    CLOUDY    30  30 100 N7        29.96S FOG     WCI  23
SHELDON        CLOUDY    30  32 100 N12G17    29.94F FOG     WCI  21
SIOUX CITY     CLOUDY    29  25  85 NW20      29.99R WCI  16
6HR MIN TEMP:  29; 6HR MAX TEMP:  34; 6HR PCP:  0.01;

SPENCER        CLOUDY    32  31  96 N15       29.94S WCI  22
6HR MIN TEMP:  32; 6HR MAX TEMP:  33; 6HR PCP:  0.07;

STORM LAKE     CLOUDY    32  32 100 NW14      29.93R FOG     WCI  22
$$

ABBREVIATIONS USED IN REMARKS
   TC - TEMPERATURE IN CELSIUS
  WCI - WIND CHILL INDEX
   HX - HEAT INDEX
  VSB - VISIBILITY





USA.gov is the U.S. government's official web portal to all federal, state and local government web resources and services.